GFSFLT1_250_spd_072.txt.gz
Wind_Speed
28 23 18 18 18 20 21 18 16 28 36 40 43 49 43 48 51 54 50 51 53 47 49 46 44 38 37 35 28 34 42 51
28 23 18 18 18 21 16 15 10 17 37 41 43 48 50 45 47 55 56 57 54 55 51 43 37 38 39 29 29 31 39 50
28 22 19 18 16 18 14 12 11 11 17 37 43 46 50 51 50 50 52 52 56 60 58 51 47 49 41 35 33 32 32 46
25 18 15 14 12 14 15 14 14 13 13 17 45 48 53 53 50 54 54 54 56 57 60 61 56 53 45 37 38 39 40 43
25 19 13 12 11 10 13 16 17 17 14 13 21 51 53 51 54 56 54 46 50 51 54 59 58 57 53 46 46 37 39 41
28 23 17 13 15 13 12 13 15 18 18 16 15 24 52 54 50 58 60 57 53 47 46 54 59 59 59 62 53 49 41 46
33 31 27 20 18 15 14 14 13 16 18 20 18 12 26 43 57 51 62 61 60 53 51 48 53 51 49 55 61 56 49 49
35 31 28 28 21 20 18 14 10 13 15 17 21 17 14 23 36 52 50 61 61 66 59 57 53 53 60 55 57 56 54 50
35 33 29 27 25 23 21 16 13 12 13 15 18 18 18 15 24 36 51 50 64 67 67 62 55 54 53 52 52 57 58 57
29 28 31 31 27 29 24 21 16 13 10 10 13 18 18 18 16 20 33 47 60 57 58 57 58 54 55 53 53 54 54 55
31 32 32 32 30 32 27 22 22 17 14 14 13 15 18 20 19 19 18 24 31 40 58 65 66 66 64 61 63 60 60 61
39 35 33 33 33 34 30 22 23 23 19 16 16 14 15 17 21 22 22 22 21 26 33 37 47 55 63 69 65 62 68 68
41 38 37 36 35 36 36 32 29 28 28 25 20 19 19 18 18 18 24 25 26 24 22 26 36 36 38 46 56 62 65 69
37 39 39 38 34 35 38 36 34 31 29 30 31 29 25 24 24 23 22 25 23 29 31 30 28 29 31 38 45 49 51 51
38 36 39 39 39 38 36 37 37 37 34 32 29 26 27 29 31 32 30 28 27 27 25 30 35 39 40 39 38 38 39 42
41 40 41 41 43 43 44 42 43 42 41 37 30 31 33 34 34 37 35 39 36 30 31 33 33 32 34 40 44 46 47 46
45 42 44 44 45 47 47 47 43 43 43 43 42 44 39 39 38 40 41 40 43 42 40 40 42 42 43 42 40 43 48 53
47 48 43 43 46 49 49 48 48 48 47 46 47 48 47 44 45 45 46 45 44 46 48 47 45 48 48 49 50 46 49 51
53 52 51 49 48 50 51 51 52 50 50 52 52 52 53 52 51 53 54 53 52 54 55 55 54 55 53 54 57 56 57 54

GFSFLT1_250_spd_075.txt.gz
Wind_Speed
32 28 27 29 24 19 22 20 21 23 20 25 30 36 38 41 31 33 43 50 45 49 54 61 51 47 42 39 40 31 28 28
31 28 29 30 23 20 20 19 15 16 12 20 30 31 33 40 39 34 40 53 55 51 48 48 49 48 46 44 38 28 31 33
30 29 29 28 24 18 17 16 14 14 12 11 15 34 35 36 42 36 38 46 59 52 50 50 52 50 43 41 36 39 35 40
31 31 31 27 25 18 14 12 12 13 12 12 14 15 39 35 38 34 41 40 50 54 57 56 56 53 51 51 52 45 50 41
29 30 29 25 24 16 13 10 12 11 11 10 13 13 17 41 39 40 40 42 49 50 57 62 62 58 56 55 56 56 42 45
29 31 27 24 20 17 16 14 12 10 10 9 9 12 10 20 40 43 46 46 48 53 55 53 53 56 59 61 58 55 58 51
33 31 31 23 21 18 17 17 14 11 11 10 9 9 10 11 22 37 47 51 47 49 51 47 49 50 51 50 49 51 51 49
32 36 36 32 30 25 21 21 18 13 10 9 10 9 7 7 9 22 32 45 51 47 52 57 54 54 52 47 46 45 45 48
37 34 37 34 30 30 27 23 22 18 13 7 5 8 9 7 5 6 15 25 42 53 51 49 51 56 53 52 51 49 49 49
38 32 34 37 34 31 29 27 24 22 21 13 8 8 9 10 11 8 6 8 17 28 47 49 50 53 52 51 53 53 55 53
35 33 32 34 34 32 32 31 28 25 25 20 14 11 12 11 10 9 10 10 9 9 16 25 34 47 55 55 56 57 60 57
46 39 32 31 33 34 34 34 31 28 23 23 19 18 15 14 13 11 8 12 14 14 15 15 17 28 33 38 48 60 62 62
44 42 38 35 33 32 33 34 32 32 31 26 26 25 23 20 19 18 16 16 17 19 14 19 21 21 19 22 33 38 38 42
47 46 44 40 37 34 34 34 34 37 37 35 31 30 32 29 26 25 24 23 21 21 23 22 21 22 25 28 29 30 29 29
45 45 46 43 39 36 37 35 36 36 35 36 36 33 35 33 29 30 31 31 29 28 29 29 28 30 30 27 26 27 29 34
36 36 36 37 39 39 40 41 41 40 40 41 36 35 36 35 34 31 32 34 35 35 34 35 35 37 36 37 34 34 35 34
41 39 40 39 41 43 45 45 44 44 44 42 41 38 36 36 37 39 42 40 40 42 41 38 39 42 43 45 46 44 42 42
50 48 46 41 43 44 44 44 46 45 45 46 47 46 46 46 46 46 47 48 48 47 49 48 48 48 47 48 51 53 52 50
54 55 52 51 49 48 47 49 52 51 50 50 51 51 52 52 51 51 51 54 55 54 55 55 56 57 54 55 57 57 57 59

GFSFLT1_250_spd_078.txt.gz
Wind_Speed
44 46 37 30 27 26 26 23 20 22 26 22 21 23 21 25 37 34 41 34 29 34 51 42 46 43 43 42 41 42 40 37
45 42 37 30 28 27 26 22 21 20 19 16 14 18 26 22 26 29 39 29 29 37 42 48 48 47 52 48 47 42 39 38
48 41 34 30 31 27 26 20 19 19 18 14 14 12 22 28 24 34 35 32 31 34 34 39 39 38 47 50 49 43 42 38
47 41 34 33 30 29 25 19 15 14 15 15 14 11 13 28 27 32 37 29 30 31 33 35 41 43 49 49 51 49 46 41
48 40 35 35 31 28 25 21 14 11 11 12 13 12 11 17 34 29 34 37 43 38 40 40 43 49 50 48 48 49 50 51
48 41 37 35 30 28 25 23 15 12 9 9 11 7 8 11 33 34 37 39 47 45 48 52 53 51 50 51 53 53 52 50
47 40 37 34 31 28 27 24 19 13 11 9 8 4 5 4 21 40 42 40 46 51 54 59 57 56 57 57 59 60 56 55
43 39 39 37 32 31 27 23 21 17 13 8 5 2 1 3 2 22 39 46 51 47 57 60 59 59 60 55 55 55 55 53
45 45 44 38 35 35 32 27 23 20 17 13 8 3 3 3 3 1 10 33 43 53 59 64 65 60 60 58 54 53 51 50
48 46 42 40 37 38 34 31 25 22 17 18 14 9 6 4 3 7 5 4 9 23 30 45 55 55 53 58 59 58 59 58
47 41 36 36 36 37 36 34 31 29 25 22 22 19 13 8 5 2 6 7 5 6 6 15 24 35 48 50 52 54 55 57
44 41 39 35 34 36 35 36 34 31 31 28 24 24 21 18 14 10 9 8 7 7 8 12 13 13 18 27 32 36 38 44
46 40 36 33 32 34 34 38 37 37 36 33 30 26 25 24 22 19 16 14 15 12 13 11 12 14 16 18 20 20 21 23
50 45 40 38 36 35 32 32 33 34 34 35 33 32 30 28 29 29 27 25 24 23 21 19 18 18 19 21 21 18 21 23
52 49 48 45 43 42 38 36 36 33 32 34 35 37 38 37 35 33 34 34 33 32 30 27 27 27 27 26 26 28 30 30
47 50 50 48 46 46 44 43 40 39 37 37 37 39 41 39 35 35 36 36 35 35 33 33 34 35 33 31 32 35 39 39
44 44 47 49 50 48 46 45 45 43 46 44 41 43 41 38 38 37 38 40 41 41 41 41 40 40 39 40 39 40 43 46
46 46 46 47 47 45 46 46 44 48 51 49 45 44 44 45 45 43 43 44 46 46 47 49 49 47 48 48 50 50 50 51
52 46 50 48 45 46 47 46 46 49 49 46 46 46 48 48 47 46 46 48 50 53 55 55 56 53 55 56 57 58 58 60

GFSFLT1_250_spd_084.txt.gz
Wind_Speed
72 70 64 58 53 44 41 33 32 30 35 31 27 23 25 21 26 30 32 34 40 48 53 60 59 56 57 61 60 56 48 39
74 68 62 53 45 39 37 36 34 35 36 29 23 23 21 13 18 29 34 34 42 47 51 43 45 49 61 58 57 51 45 41
70 69 60 45 41 37 37 39 38 37 33 24 23 22 21 16 13 23 35 40 42 43 42 41 44 44 45 47 52 44 45 45
68 60 51 38 38 35 43 40 39 36 30 23 24 19 21 19 15 21 27 35 40 39 41 35 37 46 44 46 42 47 50 43
60 55 42 37 37 44 45 42 39 34 25 24 17 12 15 22 19 17 25 36 41 42 42 36 39 37 45 50 49 46 45 43
60 47 39 37 42 48 46 42 37 33 25 23 13 8 12 19 21 19 28 35 34 34 36 36 34 40 47 46 46 44 42 38
49 41 35 41 50 49 47 43 38 32 26 23 13 8 13 16 17 22 31 37 40 38 40 36 36 40 43 40 40 42 31 32
42 37 39 52 54 53 50 44 37 30 29 25 15 12 11 13 15 20 33 38 40 42 43 39 39 45 39 43 46 45 40 42
37 38 48 57 55 54 50 43 37 31 31 27 19 16 12 14 11 18 34 43 40 42 43 43 45 47 45 45 45 46 51 53
37 43 54 57 56 54 49 44 38 34 32 30 22 20 16 12 13 13 25 43 44 44 46 45 43 50 57 59 56 52 56 61
41 52 58 59 56 53 50 44 40 36 36 32 26 23 20 16 12 12 16 35 44 45 47 47 45 49 54 62 61 59 60 66
48 57 60 59 55 53 50 46 43 36 39 38 32 29 24 22 18 15 13 21 28 42 49 49 52 53 53 61 64 66 70 69
54 57 59 56 54 53 51 47 44 41 42 42 37 31 26 25 24 24 21 17 23 25 27 45 54 57 60 63 65 67 70 71
55 57 57 56 53 52 51 47 46 45 44 43 39 34 32 32 30 29 29 28 24 25 26 22 27 36 46 56 65 68 71 69
56 54 54 57 54 53 52 50 50 48 46 44 42 38 38 35 36 36 36 35 33 30 29 28 28 29 32 34 36 38 39 42
59 56 54 56 54 54 54 52 49 49 48 45 41 40 42 42 42 42 40 41 39 36 35 35 35 38 39 41 42 43 42 42
60 58 55 59 56 55 55 56 54 50 46 43 43 43 43 44 47 46 45 45 44 44 43 42 43 45 46 48 50 50 48 49
60 59 57 58 59 56 57 56 54 53 49 48 47 45 44 44 45 45 44 43 45 45 46 45 47 49 50 50 51 53 53 53
59 58 58 59 60 57 56 57 56 55 54 53 51 49 49 50 51 49 49 50 50 50 49 48 48 51 54 54 55 55 55 56